Flag for Romania Weather past 2 weeks in Cluj-Napoca, Romania

Now
50 °F

Partly sunny.


Feels Like: 46 °F
Forecast: 36 / 46 °F
Wind: 10 mph from South

Location: Cluj Airport-Napoca

Current Time: Mar 2, 2015 at 6:48:20 PM

Latest Report: Mar 2, 2015 at 6:00 PM


Visibility: N/A

Pressure: 29.74 "Hg

Humidity: 67%

Dew point: 39 °F

Location of Cluj-NapocaLocation

Historic Weather in Cluj-Napoca — Graph

°F

Cluj-Napoca temperature yesterday

Maximum temperature yesterday: 54 °F (at 2:00 PM)
Minimum temperature yesterday: 41 °F (at 5:00 AM)
Average temperature yesterday: 45 °F

Past Weeks' High & Low Weather Summary

 TemperatureHumidityPressure
High57 °F (Feb 24, 2:00 PM)100% (Feb 16, 12:00 AM)30.69 "Hg (Feb 16, 12:00 AM)
Low14 °F (Feb 18, 5:30 AM)24% (Feb 18, 2:30 PM)29.65 "Hg (Feb 24, 4:00 PM)
Average39 °F80%30.07 "Hg
* Reported Feb 15 5:00 PM — Mar 2 5:30 PM, Cluj-Napoca, Weather by CustomWeather, © 2015

Note: Actual official high and low records may vary slightly from our data, if they occured in-between our weather recording intervals... More about our weather records

Advertising

Cluj-Napoca weather history for previous 24 hours

 ConditionsComfort  
Time TempWeatherWind HumidityBarometerVisibility
5:30 PM
Mon, Mar 2
52 °FPartly sunny.10 mph62%29.74 "HgN/A
5:00 PM52 °FPartly sunny.8 mph58%29.77 "HgN/A
4:30 PM52 °FScattered clouds.5 mph58%29.77 "HgN/A
4:00 PM54 °FScattered clouds.8 mph54%29.77 "HgN/A
3:00 PM54 °FBroken clouds.9 mph54%29.77 "HgN/A
2:30 PM54 °FBroken clouds.8 mph54%29.80 "HgN/A
1:30 PM54 °FBroken clouds.7 mph58%29.80 "HgN/A
1:00 PM54 °FScattered clouds.2 mph51%29.83 "HgN/A
12:30 PM54 °FScattered clouds.2 mph54%29.83 "HgN/A
12:00 PM52 °FScattered clouds.8 mph67%29.83 "HgN/A
11:30 AM50 °FPartly sunny.7 mph71%29.86 "HgN/A
11:00 AM50 °FScattered clouds.6 mph71%29.86 "HgN/A
10:30 AM46 °FPassing clouds.6 mph82%29.89 "HgN/A
10:00 AM46 °FSunny.7 mph82%29.89 "Hg10 mi
9:30 AM45 °FPassing clouds.8 mph93%29.89 "HgN/A
9:00 AM43 °FScattered clouds.6 mph93%29.89 "HgN/A
8:30 AM41 °FPartly sunny.5 mph100%29.89 "HgN/A
8:00 AM41 °FPartly sunny.6 mph100%29.89 "HgN/A
7:30 AM41 °FPartly sunny.6 mph100%29.89 "Hg5 mi
7:00 AM41 °FOvercast.5 mph100%29.89 "Hg5 mi
6:30 AM41 °FOvercast.3 mph100%29.89 "Hg4 mi
6:00 AM39 °FPassing clouds.2 mph100%29.89 "Hg4 mi
5:30 AM41 °FPassing clouds.3 mph100%29.89 "Hg4 mi
5:00 AM41 °FFog.1 mph100%29.89 "Hg3 mi
4:00 AM41 °FFog.6 mph100%29.89 "Hg3 mi
3:00 AM41 °FFog.1 mph100%29.86 "Hg3 mi
2:00 AM39 °FFog.3 mph100%29.89 "Hg3 mi
1:00 AM41 °FFog.2 mph100%29.89 "HgN/A
12:00 AM41 °FPassing clouds.5 mph100%29.89 "HgN/A
11:30 PM
Sun, Mar 1
41 °FFog.5 mph100%29.89 "HgN/A
11:00 PM41 °FFog.3 mph100%29.92 "Hg3 mi
10:30 PM43 °FPassing clouds.2 mph100%29.92 "Hg5 mi
9:30 PM43 °FFog.2 mph100%29.92 "Hg2 mi
9:00 PM43 °FPassing clouds.1 mph100%29.92 "Hg4 mi
8:30 PM43 °FPassing clouds.2 mph100%29.92 "HgN/A
8:00 PM43 °FPassing clouds.3 mph100%29.92 "HgN/A
7:30 PM43 °FPassing clouds.3 mph100%29.92 "HgN/A
7:00 PM45 °FPassing clouds.5 mph100%29.92 "HgN/A
6:30 PM45 °FPassing clouds.3 mph100%29.92 "HgN/A
6:00 PM46 °FPassing clouds.2 mph93%29.92 "HgN/A
Weather by CustomWeather, © 2015

See weather overviewHow to use our weather pages